• In Moldova, Republic
  • List of Countries
  • For 7 days
  • Water Temperature
  • Satellite Maps
  • Weather Map
  • Weather Widgets
  • user-avatar
    Login

    Hourly Weather Sydney

    Today, 20 January, Friday

    Time Temperature Precipitation Wind Pressure Humidity
    00:00 +21°C° 0 mm 5 mps 756 mmHg 78%
    01:00 +21°C° 0 mm 5 mps 755 mmHg 80%
    02:00 +21°C° 0 mm 5 mps 754 mmHg 82%
    03:00 +21°C° 0 mm 5 mps 754 mmHg 84%
    04:00 +20°C° 0 mm 5 mps 753 mmHg 90%
    05:00 +20°C° 0.1 mm 5 mps 752 mmHg 87%
    06:00 +21°C° 0.1 mm 6 mps 751 mmHg 85%
    07:00 +22°C° 0.1 mm 6 mps 751 mmHg 83%
    08:00 +26°C° 0.5 mm 6 mps 750 mmHg 71%
    09:00 +30°C° 0.5 mm 7 mps 749 mmHg 59%
    10:00 +35°C° 0.5 mm 7 mps 748 mmHg 48%
    11:00 +36°C° 0.5 mm 7 mps 747 mmHg 45%
    12:00 +38°C° 0.5 mm 7 mps 746 mmHg 43%
    13:00 +39°C° 0.5 mm 7 mps 745 mmHg 40%
    14:00 +39°C° 1.8 mm 7 mps 745 mmHg 43%
    15:00 +38°C° 1.8 mm 6 mps 745 mmHg 46%
    16:00 +36°C° 1.8 mm 5 mps 745 mmHg 48%
    17:00 +34°C° 0.4 mm 5 mps 745 mmHg 54%
    18:00 +33°C° 0.4 mm 5 mps 746 mmHg 60%
    19:00 +32°C° 0.4 mm 4 mps 746 mmHg 66%
    20:00 +29°C° 0 mm 6 mps 747 mmHg 67%
    21:00 +27°C° 0 mm 7 mps 748 mmHg 67%
    22:00 +24°C° 0 mm 9 mps 750 mmHg 68%
    23:00 +23°C° 0 mm 8 mps 750 mmHg 67%

    Tomorrow, 21 January, Saturday

    Time Temperature Precipitation Wind Pressure Humidity
    00:00 +22°C° 0 mm 8 mps 751 mmHg 65%
    01:00 +21°C° 0 mm 8 mps 752 mmHg 63%
    02:00 +21°C° 0 mm 7 mps 753 mmHg 61%
    03:00 +20°C° 0 mm 7 mps 753 mmHg 59%
    04:00 +20°C° 0 mm 7 mps 754 mmHg 57%
    05:00 +20°C° 0 mm 7 mps 754 mmHg 57%
    06:00 +20°C° 0 mm 6 mps 755 mmHg 56%
    07:00 +21°C° 0 mm 6 mps 756 mmHg 55%
    08:00 +22°C° 0 mm 6 mps 757 mmHg 51%
    09:00 +24°C° 0 mm 6 mps 757 mmHg 46%
    10:00 +26°C° 0 mm 6 mps 758 mmHg 42%
    11:00 +27°C° 0 mm 6 mps 758 mmHg 41%
    12:00 +27°C° 0 mm 6 mps 758 mmHg 40%
    13:00 +28°C° 0 mm 6 mps 758 mmHg 38%
    14:00 +28°C° 0 mm 6 mps 758 mmHg 41%
    15:00 +27°C° 0 mm 6 mps 758 mmHg 44%
    16:00 +27°C° 0 mm 6 mps 758 mmHg 46%
    17:00 +25°C° 0 mm 5 mps 759 mmHg 54%
    18:00 +22°C° 0 mm 5 mps 759 mmHg 62%
    19:00 +21°C° 0 mm 4 mps 760 mmHg 70%
    20:00 +20°C° 0 mm 4 mps 761 mmHg 75%
    21:00 +19°C° 0 mm 3 mps 761 mmHg 81%
    22:00 +18°C° 0 mm 3 mps 762 mmHg 86%
    23:00 +18°C° 0 mm 2 mps 762 mmHg 84%

    Day after tomorrow, 22 January, Sunday

    Time Temperature Precipitation Wind Pressure Humidity
    00:00 +19°C° 0 mm 2 mps 762 mmHg 82%
    01:00 +19°C° 0 mm 2 mps 762 mmHg 79%
    02:00 +19°C° 0 mm 2 mps 761 mmHg 80%
    03:00 +19°C° 0 mm 2 mps 761 mmHg 81%
    04:00 +19°C° 0 mm 2 mps 761 mmHg 82%
    05:00 +19°C° 0 mm 2 mps 762 mmHg 78%
    06:00 +20°C° 0 mm 2 mps 762 mmHg 75%
    07:00 +21°C° 0 mm 2 mps 763 mmHg 72%
    08:00 +23°C° 0 mm 1 mps 763 mmHg 65%
    09:00 +25°C° 0 mm 1 mps 763 mmHg 58%
    10:00 +27°C° 0 mm 1 mps 763 mmHg 51%
    11:00 +28°C° 0 mm 2 mps 762 mmHg 47%
    12:00 +29°C° 0 mm 3 mps 762 mmHg 43%
    13:00 +31°C° 0 mm 3 mps 761 mmHg 39%
    14:00 +30°C° 0 mm 4 mps 761 mmHg 41%
    15:00 +30°C° 0 mm 4 mps 760 mmHg 43%
    16:00 +30°C° 0 mm 5 mps 760 mmHg 44%
    17:00 +28°C° 0 mm 5 mps 760 mmHg 52%
    18:00 +26°C° 0 mm 5 mps 760 mmHg 59%
    19:00 +23°C° 0 mm 5 mps 761 mmHg 66%
    20:00 +22°C° 0 mm 5 mps 761 mmHg 72%
    21:00 +21°C° 0 mm 4 mps 761 mmHg 78%
    22:00 +19°C° 0 mm 4 mps 762 mmHg 84%
    23:00 +19°C° 0 mm 4 mps 761 mmHg 87%

    23 January, Monday

    Time Temperature Precipitation Wind Pressure Humidity
    00:00 +18°C° 0 mm 4 mps 761 mmHg 89%
    01:00 +18°C° 0 mm 4 mps 760 mmHg 92%
    02:00 +17°C° 0 mm 4 mps 760 mmHg 93%
    03:00 +17°C° 0 mm 3 mps 760 mmHg 95%
    04:00 +17°C° 0 mm 3 mps 760 mmHg 96%
    05:00 +18°C° 0 mm 4 mps 760 mmHg 89%
    06:00 +20°C° 0 mm 4 mps 760 mmHg 82%
    07:00 +22°C° 0 mm 4 mps 760 mmHg 75%
    08:00 +25°C° 0 mm 4 mps 760 mmHg 64%
    09:00 +28°C° 0 mm 5 mps 760 mmHg 53%
    10:00 +32°C° 0 mm 5 mps 759 mmHg 42%
    11:00 +34°C° 0 mm 5 mps 759 mmHg 37%
    12:00 +36°C° 0 mm 6 mps 758 mmHg 32%
    13:00 +39°C° 0 mm 6 mps 757 mmHg 27%
    14:00 +38°C° 0 mm 7 mps 757 mmHg 29%
    15:00 +38°C° 0 mm 7 mps 756 mmHg 32%
    16:00 +37°C° 0 mm 8 mps 756 mmHg 34%
    17:00 +34°C° 0 mm 8 mps 756 mmHg 41%
    18:00 +32°C° 0 mm 7 mps 756 mmHg 48%
    19:00 +29°C° 0 mm 7 mps 756 mmHg 55%
    20:00 +28°C° 0 mm 7 mps 756 mmHg 58%
    21:00 +27°C° 0 mm 7 mps 757 mmHg 61%
    22:00 +26°C° 0 mm 6 mps 757 mmHg 63%
    23:00 +26°C° 0 mm 6 mps 756 mmHg 66%

    24 January, Tuesday

    Time Temperature Precipitation Wind Pressure Humidity
    00:00 +25°C° 0 mm 5 mps 756 mmHg 68%
    01:00 +25°C° 0 mm 5 mps 756 mmHg 70%
    02:00 +25°C° 0 mm 5 mps 755 mmHg 69%
    03:00 +25°C° 0 mm 4 mps 755 mmHg 68%
    04:00 +25°C° 0 mm 4 mps 755 mmHg 66%
    05:00 +27°C° 0 mm 4 mps 755 mmHg 58%
    06:00 +29°C° 0 mm 4 mps 756 mmHg 50%
    07:00 +32°C° 0 mm 4 mps 756 mmHg 43%
    08:00 +35°C° 0 mm 4 mps 756 mmHg 37%
    09:00 +38°C° 0 mm 4 mps 756 mmHg 31%
    10:00 +42°C° 0 mm 4 mps 755 mmHg 26%
    11:00 +43°C° 0 mm 4 mps 755 mmHg 24%
    12:00 +44°C° 0 mm 4 mps 755 mmHg 23%
    13:00 +47°C° 0 mm 4 mps 754 mmHg 22%
    14:00 +43°C° 0.8 mm 5 mps 755 mmHg 29%
    15:00 +41°C° 0.8 mm 5 mps 755 mmHg 36%
    16:00 +37°C° 0.8 mm 5 mps 755 mmHg 43%
    17:00 +33°C° 1.2 mm 6 mps 756 mmHg 59%
    18:00 +28°C° 1.2 mm 7 mps 758 mmHg 74%
    19:00 +23°C° 1.2 mm 8 mps 759 mmHg 89%
    20:00 +22°C° 0.8 mm 8 mps 760 mmHg 88%
    21:00 +22°C° 0.8 mm 8 mps 761 mmHg 87%
    22:00 +22°C° 0.8 mm 7 mps 762 mmHg 86%
    23:00 +22°C° 0.1 mm 7 mps 762 mmHg 81%

    25 January, Wednesday

    Time Temperature Precipitation Wind Pressure Humidity
    00:00 +22°C° 0.1 mm 7 mps 763 mmHg 75%
    01:00 +22°C° 0.1 mm 7 mps 763 mmHg 70%
    02:00 +22°C° 0 mm 6 mps 763 mmHg 68%
    03:00 +22°C° 0 mm 6 mps 763 mmHg 66%
    04:00 +22°C° 0 mm 5 mps 763 mmHg 64%
    05:00 +22°C° 0 mm 5 mps 764 mmHg 63%
    06:00 +22°C° 0 mm 5 mps 765 mmHg 63%
    07:00 +22°C° 0 mm 4 mps 765 mmHg 62%
    08:00 +23°C° 0 mm 4 mps 765 mmHg 59%
    09:00 +25°C° 0 mm 4 mps 765 mmHg 57%
    10:00 +26°C° 0 mm 4 mps 765 mmHg 54%
    11:00 +26°C° 0 mm 4 mps 765 mmHg 53%
    12:00 +27°C° 0 mm 4 mps 764 mmHg 52%
    13:00 +27°C° 0 mm 3 mps 764 mmHg 50%
    14:00 +28°C° 0 mm 3 mps 764 mmHg 50%
    15:00 +28°C° 0 mm 3 mps 763 mmHg 51%
    16:00 +28°C° 0 mm 3 mps 763 mmHg 51%
    17:00 +27°C° 0 mm 3 mps 763 mmHg 57%
    18:00 +26°C° 0 mm 2 mps 763 mmHg 64%
    19:00 +24°C° 0 mm 2 mps 763 mmHg 70%
    20:00 +23°C° 0 mm 2 mps 764 mmHg 77%
    21:00 +21°C° 0 mm 2 mps 764 mmHg 84%
    22:00 +21°C° 0 mm 1 mps 764 mmHg 91%
    23:00 +21°C° 0 mm 1 mps 763 mmHg 91%
    Show more